Satellite-Ground Cal/Val Site Overpasses Predictions

Prediction of Satellite NPP Overpassing Cal/Val Site: Antarctic Dome C

Ground Cal/Val Site Location: Latitude: -75.10, Longitude: 123.35; Satellite-Ground Site NADIR distance within 100 km.

Table of predicted overpasses for the next 14.0 days since TLE Epoch: 5/15/2020
Interval Starting Time Ending Time Minimum Distance Time Minimum Distance (km)
1 05/16/2020 07:18:39 05/16/2020 07:18:58 05/16/2020 07:18:49 75.34
2 05/18/2020 15:00:53 05/18/2020 15:01:17 05/18/2020 15:01:05 58.48
3 05/19/2020 14:42:02 05/19/2020 14:42:28 05/19/2020 14:42:15 50.65
4 05/20/2020 07:43:44 05/20/2020 07:44:04 05/20/2020 07:43:54 69.84
5 05/21/2020 07:24:51 05/21/2020 07:25:19 05/21/2020 07:25:05 38.09
6 05/23/2020 15:07:17 05/23/2020 15:07:24 05/23/2020 15:07:21 96.09
7 05/24/2020 14:48:16 05/24/2020 14:48:45 05/24/2020 14:48:31 15.16
8 05/26/2020 07:31:05 05/26/2020 07:31:35 05/26/2020 07:31:20 1.57


NCC Satellite Cal/Val Overpasses Prediction Service
